Location: Nitra
(48.3167°N, 18.0833°E)
Time: 08:34:24
(UTC+01:00)

ISS - Pass Details

Date: 25 February 2019
Orbit: 406 x 411 km, 51.6° (Epoch: 23 March)

Event Time Altitude Azimuth Distance (km) Brightness Sun altitude
Exits shadow 04:49:29 - 180° (S) 1,692 -0.8 -18.7°
Reaches altitude 10° 04:50:24 10° 168° (SSE) 1,459 -1.0 -18.6°
Maximum altitude 04:52:07 14° 136° (SE) 1,262 -0.9 -18.3°
Drops below altitude 10° 04:53:51 10° 104° (ESE) 1,465 0.1 -18.0°
Sets 04:56:42 0° 77° (ENE) 2,331 1.7 -17.5°
